Beaufort, NC

4:25 PM EDT on October 16, 2019 (GMT -0400)
Smith

Weather History for KMRH - June, 2019

Change the Weather History Date:

Thursday, June 13, 2019

  Actual Average Record
Temperature  
Mean Temperature 79 °F -  
Max Temperature 81 °F 83 °F 93 °F (1964)
Min Temperature 77 °F 66 °F 56 °F (1979)
Cooling Degree Days 14    
Growing Degree Days 29 (Base 50)    
Moisture  
Dew Point 70 °F    
Average Humidity 75    
Maximum Humidity 88    
Minimum Humidity 66    
Precipitation  
Precipitation 0.00 in - - ()
Sea Level Pressure  
Sea Level Pressure 29.90 in    
Wind  
Wind Speed 17 mph (SW)    
Max Wind Speed 24 mph    
Max Gust Speed 30 mph    
Visibility 10 miles    
Events      
Averages and records for this station are not official NWS values.
T = Trace of Precipitation, MM = Missing Value Source: NWS Daily Summary

Daily Weather History Graph

Daily Weather History Graph

Search for Another Location

Airport or City:

Astronomy

Jun. 13, 2019 Rise Set
Actual Time 5:52 AM EDT 8:20 PM EDT
Civil Twilight 5:23 AM EDT 8:50 PM EDT
Nautical Twilight 4:46 AM EDT 9:26 PM EDT
Astronomical Twilight 4:06 AM EDT 10:06 PM EDT
Moon 4:42 PM EDT (6/13) 3:25 AM EDT (6/13)
Length of Visible Light 15h 26m
Length of Day
14h 27m
Waxing Gibbous, 85% of the Moon is Illuminated
Jun 13
Waxing Gibbous
Jun 17
Full
Jun 25
Last Quarter
Jul 2
New
Jul 9
First Quarter

Hourly Weather History & Observations

Time (EDT) Temp. Heat Index Dew Point Humidity Pressure Visibility Wind Dir Wind Speed Gust Speed Precip Events Conditions
12:07 AM 78.1 °F - 73.9 °F 87% 29.89 in 10.0 mi SSW 10.4 mph - N/A   Mostly Cloudy
12:58 AM 79.0 °F - 73.9 °F 84% 29.88 in 10.0 mi SSW 18.4 mph 25.3 mph N/A   Mostly Cloudy
1:11 AM 79.0 °F - 73.9 °F 84% 29.87 in 10.0 mi SSW 13.8 mph - N/A   Scattered Clouds
1:58 AM 79.0 °F - 73.9 °F 84% 29.86 in 10.0 mi SSW 17.3 mph - N/A   Scattered Clouds
2:58 AM 79.0 °F - 75.0 °F 88% 29.83 in 10.0 mi SSW 16.1 mph 21.9 mph N/A   Overcast
3:13 AM 79.0 °F - 75.0 °F 88% 29.83 in 10.0 mi SSW 16.1 mph 25.3 mph N/A   Overcast
11:58 AM 80.1 °F 82.7 °F 68.0 °F 67% 29.91 in 10.0 mi SW 16.1 mph - N/A   Partly Cloudy
12:58 PM 80.1 °F 82.9 °F 69.1 °F 69% 29.91 in 10.0 mi SSW 19.6 mph - N/A   Scattered Clouds
1:16 PM 80.1 °F 83.2 °F 70.0 °F 71% 29.91 in 10.0 mi SSW 18.4 mph - N/A   Mostly Cloudy
1:47 PM 80.1 °F 83.2 °F 70.0 °F 71% 29.90 in 10.0 mi SSW 20.7 mph - N/A   Scattered Clouds
1:58 PM 79.0 °F - 69.1 °F 72% 29.91 in 10.0 mi SW 18.4 mph - N/A   Partly Cloudy
2:58 PM 79.0 °F - 68.0 °F 69% 29.90 in 10.0 mi SSW 18.4 mph - N/A   Clear
3:58 PM 80.1 °F 82.9 °F 69.1 °F 69% 29.88 in 10.0 mi SW 20.7 mph - N/A   Unknown
4:58 PM 81.0 °F 84.1 °F 69.1 °F 67% 29.89 in 10.0 mi SW 23.0 mph - N/A   Clear
5:58 PM 80.1 °F 82.9 °F 69.1 °F 69% 29.89 in 10.0 mi SW 24.2 mph 29.9 mph N/A   Clear
6:58 PM 78.1 °F - 69.1 °F 74% 29.90 in 10.0 mi SW 24.2 mph - N/A   Clear
7:58 PM 77.0 °F - 69.1 °F 76% 29.91 in 10.0 mi SW 23.0 mph 27.6 mph N/A   Clear
8:58 PM 77.0 °F - 69.1 °F 76% 29.93 in 10.0 mi SW 19.6 mph 26.5 mph N/A   Clear
9:58 PM 77.0 °F - 68.0 °F 74% 29.95 in 10.0 mi WSW 16.1 mph 23.0 mph N/A   Clear
10:58 PM 78.1 °F - 66.0 °F 66% 29.97 in 10.0 mi WSW 16.1 mph 25.3 mph N/A   Clear
11:58 PM 77.0 °F - 68.0 °F 74% 29.98 in 10.0 mi WSW 15.0 mph - N/A   Partly Cloudy